Location: Arko-Bongo
(14.9263°N, 3.0837°W)
Time: 04:26:47
(UTC+00:00)

Daily predictions for brighter satellites

Satellite Brightness Start Highest point End
(mag) Time Altitude Azimuth Time Altitude Azimuth Time Altitude Azimuth
ATLAS CENTAUR Rocket 3.5 03:48:59 32° NE 03:48:59 32° NE 03:51:29 10° ENE
CZ-3 R/B 4.1 03:43:24 46° W 03:53:55 62° NNW 04:05:14 10° ENE
Cosmos 1833 Rocket 4.2 04:03:26 25° NNE 04:03:26 25° NNE 04:05:43 10° NNE
Cosmos 1953 4.2 04:03:34 27° ENE 04:04:11 28° E 04:07:41 10° SE
ALOS 3.9 04:02:58 10° NE 04:07:11 34° E 04:11:22 10° SSE
ATLAS 3B R/B 2.5 04:13:58 66° NW 04:13:58 66° NW 04:20:11 10° NNE
EPKM 3.6 04:13:46 74° S 04:13:59 76° SSE 04:28:04 10° ENE
Cosmos 1626 3.8 04:13:00 10° SSE 04:16:20 33° E 04:19:40 10° NNE
ADEOS 4.1 04:12:16 10° NNE 04:17:23 57° ESE 04:22:30 10° S
Cosmos 2082 Rocket 2.3 04:13:04 10° S 04:18:39 71° ESE 04:24:13 10° NNE
FUSE 3.9 04:24:34 62° SSW 04:25:20 74° SSE 04:30:39 10° ENE
Cosmos 1484 Rocket 3.4 04:21:50 10° NNE 04:25:30 53° E 04:29:09 10° S
H-2A R/B 2.6 04:21:57 10° SSE 04:26:24 61° ENE 04:29:35 18° N
Meteor 2-5 Rocket 4.1 04:23:35 10° S 04:29:04 64° E 04:34:41 10° NNE
ADEOS Rocket 3.0 04:26:07 10° SSE 04:31:48 69° ENE 04:37:14 10° N
Meteor 1-16 Rocket 4.5 04:29:06 10° N 04:34:21 64° E 04:39:42 10° SSE
METEOR-M 4.4 04:32:13 10° NNE 04:37:31 68° ESE 04:42:48 10° S
Ariane H10 4.4 04:37:10 24° SW 04:39:52 44° SSE 05:00:17 10° E
SEDSat Delta rocket 2.9 04:40:14 54° SSW 04:40:16 54° SSW 04:44:12 10° SE
Cosmos 44 4.1 04:42:27 37° WSW 04:42:27 37° WSW 04:47:05 10° S
Cosmos 2279 Rocket 3.9 04:38:14 10° N 04:44:21 68° W 04:50:28 10° S
Meteor 1-31 Rocket 2.7 04:45:39 10° NNE 04:49:34 88° E 04:53:29 10° S
CZ-4B R/B 3.4 04:49:47 10° SE 04:52:50 30° ENE 04:55:54 10° NNE
Delta 168 3.0 04:52:32 37° NNW 04:53:17 45° NNE 04:57:00 10° E
Cosmos 1892 Rocket 4.1 04:51:08 10° S 04:55:22 58° E 04:59:37 10° NNE
Landsat 5 3.9 04:53:09 10° S 04:57:02 37° W 04:57:43 35° WNW
Cosmos 2084 3.9 04:58:47 33° W 04:59:28 36° WNW 05:03:25 10° N
GPS 2-17 Rocket1 3.5 04:57:38 29° NW 04:59:39 51° N 05:04:12 10° E
CZ-4B R/B 3.7 04:56:33 10° N 05:00:30 60° WNW 05:04:17 10° SSW
deb Chang Zheng 4 3.7 04:56:26 10° N 05:00:31 47° WNW 05:04:38 10° SSW
Cosmos 292 Rocket 3.7 05:03:44 10° NNW 05:08:33 70° WSW 05:13:21 10° S
Cosmos 2251 Rocket 3.9 05:03:46 10° SW 05:08:49 42° WNW 05:13:52 10° N
GPS 2-18 Rocket1 3.2 05:07:21 21° WSW 05:09:37 63° SSE 05:13:14 10° E
ARGOS Delta rocket 4.1 05:05:21 10° N 05:10:49 76° W 05:16:14 10° SSW
Cosmos 1356 Rocket 4.2 05:10:22 16° NW 05:12:53 29° W 05:16:26 10° SSW
ARIANE 5 R/B 4.4 05:11:36 10° S 05:13:09 12° SSE 05:15:32 10° SE
ERS-2 2.0 05:09:58 10° S 05:13:35 78° W 05:17:13 10° NNW
FENGYUN 3A 4.2 05:09:39 10° N 05:14:32 35° WNW 05:19:24 10° SW
Cosmos 614 Rocket 3.9 05:14:43 10° SSW 05:19:54 77° WNW 05:25:02 10° N
SL-14 R/B 4.3 05:21:07 10° SW 05:24:18 24° W 05:27:31 10° NNW
H-II Stage 2 3.1 05:22:25 12° W 05:27:17 41° NNW 05:29:31 10° NE
SJ-12 4.3 05:25:15 10° N 05:29:04 40° WNW 05:32:52 10° SSW
Cosmos 1908 4.1 05:26:13 10° NNW 05:29:33 27° W 05:32:53 10° SSW
Cosmos 1092 Rocket 4.3 05:26:29 10° SSW 05:32:12 41° W 05:37:58 10° NNW
Cosmos 1689 Rocket 3.4 05:32:10 10° SSE 05:34:58 42° ENE 05:37:46 10° N
Cosmos 1190 Rocket 4.5 05:29:44 10° S 05:34:58 68° ESE 05:40:10 10° NNE
Palapa 6 Rocket 3.7 05:32:58 11° WNW 05:36:26 36° N 05:40:42 10° ENE
SAR-Lupe-1 4.0 05:33:47 10° SSE 05:37:20 89° ENE 05:40:53 10° NNW
USA 267 4.0 05:33:12 10° NE 05:39:37 58° SE 05:46:00 10° SSW
GPS 2-15 Rocket1 3.9 05:36:08 10° WSW 05:40:56 52° SSE 05:45:45 10° E
Sakura Rocket 4.2 05:33:09 10° WSW 05:41:13 79° SSE 05:46:53 10° ENE
ALOS 3.9 05:42:11 10° NW 05:44:13 13° WNW 05:46:17 10° W
SJ-7 4.5 05:40:30 10° NNE 05:44:28 82° ESE 05:48:26 10° S
Intercosmos 24 4.1 05:41:27 10° NNW 05:44:51 45° W 05:48:53 10° SSW
